www.pogodaiklimat.ru

Погода и климат >> Архив погоды >> Россия >> Чукотка >> Раучуа


ПОГОДА в Раучуе

  • Прогноз погоды в Раучуе
  • Монитор погоды в Раучуе

АРХИВ ПОГОДЫ в Раучуе

Время (UTC), дата Ветер
(напр.,м/с)
 
Видим.   Явления Облачность Т
(С)
Тd
(С)
f
(%)
Тe
(С)
Тes
(С)
Комфортность P
(гПа)
Po
(гПа)
Тmin
(С)
Tmax
(С)
R
(мм)
R24
(мм)
S
(см)
12 18.05 З 6
{9}
20 км позёмок 10/8 600 м
[Sc Ac und]
-7.4 -9.1 88 -16 -16 1020.7 1020.1
15 18.05 З 4
{7}
10 км слаб. снег {метель} 10/8 600 м
[Sc As op]
-8.6 -9.7 92 -16 -16 1021.2 1020.6
18 18.05 СЗ 4
{7}
20 км {снег, метель} 10/6 600 м
[Sc Ac As]
-9.0 -11.0 85 -16 -16 1021.5 1020.9
21 18.05 СЗ 3
{7}
20 км 8/6 600 м
[Sc Ac trans]
-10.6 -12.6 85 -17 -15 1021.7 1021.1 -11.4 0.2 34
00 19.05 СЗ 3
{4}
20 км 10/10 600 м
[Sc]
-8.6 -11.9 77 -14 -14 1021.2 1020.6
03 19.05 СЗ 3
{7}
20 км 8/6 600 м
[Sc Ac trans]
-10.6 -12.6 85 -17 -15 1021.7 1021.1 -11.4 0.2
06 19.05 В 3
{4}
20 км 9/9 600 м
[Sc]
-8.2 -11.9 75 -14 -14 1019.7 1019.1
09 19.05 В 5
{6}
20 км 10/10 600 м
[Sc]
-8.8 -11.2 83 -16 -16 1018.6 1018.0 -7.5
12 19.05 В 6
{8}
20 км 10/10 600 м
[Sc]
-9.2 -11.2 85 -18 -18 1017.8 1017.2
15 19.05 В 7
{9}
20 км позёмок 9/8 600 м
[Sc Ac trans]
-10.5 -11.8 90 -20 -20 1017.0 1016.4
18 19.05 В 6
{9}
20 км позёмок 8/1 600 м
[Sc Ac trans Ci fib]
-10.5 -11.8 90 -19 -19 1015.8 1015.2
21 19.05 В 6
{11}
20 км позёмок 8/1 600 м
[Sc Ac trans Ci fib]
-10.0 -12.0 85 -19 -17 1015.1 1014.5 -11.1 34
00 20.05 В 7
{11}
20 км позёмок 10/1
[Sc Ac As]
-8.2 -9.6 90 -17 -16 1014.5 1013.9
03 20.05 В 8
{11}
20 км позёмок 8/3 600 м
[Sc Ac As Ci fib]
-6.6 -7.8 91 -16 -15 1014.3 1013.7
06 20.05 В 6
{9}
20 км позёмок 8/1 600 м
[Sc Ac trans Ci fib]
-6.2 -8.1 86 -14 -13 1013.7 1013.1
09 20.05 В 3
{4}
20 км {метель} 10/1
[Sc Ac trans Cs]
-9.7 -10.9 91 -16 -15 1014.0 1013.4 -6.2
12 20.05 В 3
{4}
20 км 10/1 600 м
[Sc Ac trans Cs]
-11.6 -12.2 95 -18 -18 1014.6 1014.0
15 20.05 Ю 3
{4}
20 км 10/1 600 м
[Sc Ac lent Cs]
-12.0 -12.7 95 -18 -18 1015.4 1014.8
18 20.05 В 2
{3}
20 км 10/3 600 м
[Sc Ac trans]
-8.4 -9.7 90 -13 -12 1015.9 1015.3
21 20.05 ЮВ 1
{3}
20 км 9/8 600 м
[Sc Ac trans]
-4.2 -6.7 83 -6 -6 1016.9 1016.3 -13.7 32
00 21.05 З 1
{3}
20 км 9/8 600 м
[Sc Ac trans]
+0.2 -3.3 77 -2 0 1018.3 1017.7
03 21.05 СЗ 7
{10}
20 км позёмок 10/6 600 м
[Sc Ac und]
-2.2 -3.1 94 -10 -10 1020.3 1019.7
06 21.05 СЗ 9-10
{12}
4000 м слаб. крупа {метель} 10/8 600 м
[Cb cap Ac und]
-4.0 -4.9 93 -13 -13 1022.0 1021.4
09 21.05 СЗ 6
{10}
4000 м ливневой снег {метель} 10/8 600 м
[Cb cap Ac und]
-5.0 -5.7 95 -13 -13 1023.7 1023.1 +0.2 2
12 21.05 СЗ 5
{7}
20 км позёмок {ливн. осадки} 10/8 600 м
[Cb cap Ac und]
-5.8 -6.9 92 -13 -13 1024.5 1023.9
15 21.05 СЗ 6
{8}
20 км позёмок 10/8 600 м
[Cb cap Ac und]
-7.0 -8.3 90 -15 -15 1025.3 1024.7
18 21.05 СЗ 5
{7}
20 км позёмок 10/8 300 м
[Cb cap Ac und]
-7.8 -9.2 90 -15 -15 1026.0 1025.4
21 21.05 СЗ 4
{7}
20 км {метель} 10/4 600 м
[Cb cap Ac und]
-8.6 -10.1 89 -15 -15 1026.6 1026.0 -8.6 0.0 32
00 22.05 СЗ 2
{5}
20 км {метель} 9/5 600 м
[Cb cap Ac trans]
-7.5 -8.8 90 -12 -9 1027.1 1026.5
03 22.05 С 1
{4}
20 км 9/8 600 м
[Sc Ac trans]
-6.5 -8.1 88 -9 -8 1027.1 1026.5
06 22.05 ЮВ 1
{3}
20 км 6/6 600 м
[Sc]
-6.0 -8.7 81 -8 -7 1026.9 1026.3
09 22.05 Ю 1
{2}
20 км 1/1 600 м
[Sc]
-7.9 -9.7 87 -10 -10 1026.7 1026.1 -5.2
12 22.05 ЮВ 4
{5}
4000 м дымка 10/10 200 м
[St]
-6.9 -7.4 96 -14 -14 1026.1 1025.5
15 22.05 ЮВ 5
{7}
4000 м дымка 10/10 200 м
[St]
-7.2 -7.7 96 -15 -15 1024.7 1024.1
00 23.05 В 9-10
{13}
20 км позёмок 8/6 600 м
[Sc Ci fib]
-4.5 -5.4 93 -14 -13 1014.4 1013.8
03 23.05 В 9-10
{12}
20 км позёмок 6/6 600 м
[Sc]
-3.2 -4.6 90 -12 -12 1016.3 1015.7
06 23.05 В 7
{10}
20 км позёмок 9/9 200 м
[St]
-4.6 -5.9 91 -13 -13 1018.7 1018.1
09 23.05 В 9
{13}
20 км позёмок 8/4 600 м
[Sc Ci fib]
-5.2 -6.2 93 -15 -15 1012.1 1011.5 -3.2
12 23.05 В 5
{7}
20 км {метель} 6/3 600 м
[Sc Ci fib]
-7.8 -8.4 95 -15 -15 1011.1 1010.5
15 23.05 В 6
{9}
20 км 8/6 600 м
[Sc Ci fib]
-7.0 -7.9 93 -15 -15 1009.8 1009.2
18 23.05 В 4
{7}
20 км 9/9 600 м
[Sc]
-9.8 -11.0 91 -17 -17 1008.5 1007.9
21 23.05 ЮВ 5
{8}
20 км 8/6 600 м
[Sc Ac trans]
-1.9 -3.0 92 -9 -8 1007.9 1007.3 -12.3 31
00 24.05 В 8
{11}
20 км 8/3 1000 м
[Sc Ac cast Ci fib]
+1.6 -1.2 82 -5 -5 1006.8 1006.2
03 24.05 В 6
{9}
20 км 8/3 600 м
[Cu med, cong Ac trans Cs]
+1.2 -0.5 88 -5 -4 1006.4 1005.8
06 24.05 В 6
{10}
20 км 8/4 600 м
[Cu med, cong Ac trans Cs]
+1.0 +0.2 94 -6 -5 1005.8 1005.2
09 24.05 В 5
{7}
20 км 9/8 600 м
[Cb cap Ac trans]
+0.8 +0.3 96 -5 -5 1005.8 1005.2 +1.8
12 24.05 В 3
{6}
20 км 8/6 600 м
[Cb cap Ac trans]
+1.0 +0.2 94 -4 -4 1005.8 1005.2
15 24.05 В 2
{5}
20 км 9/8 600 м
[Sc Ac trans]
+0.9 +0.1 94 -3 -3 1006.0 1005.4
18 24.05 штиль 0
{3}
20 км 9/9 600 м
[Sc]
+1.9 +0.6 91 +1 +1 1006.2 1005.6
21 24.05 ЮВ 3
{6}
20 км 8/8 600 м
[Sc Ac trans]
+3.0 +0.3 82 -1 0 1006.5 1005.9 +0.6 25
00 25.05 ЮВ 3
{5}
20 км 3/1 600 м
[Cu med, cong Ac trans]
+3.4 +0.5 81 -0 +6 1006.7 1006.1
03 25.05 ЮВ 5
{6}
20 км 4/1 600 м
[Cu med, cong Ac lent Ci fib]
+4.0 +0.9 80 -1 +3 1006.8 1006.2
06 25.05 ЮВ 4
{7}
20 км 4/3 600 м
[Cb cap Ac lent]
+3.0 +0.1 81 -2 0 1006.5 1005.9

 

Местоположение метеостанции Раучуа (Чукотка, Россия): широта 69.50 долгота 166.50 высота над уровнем моря 5 м.

В архиве по умолчанию представлена погода в Раучуе за последнюю неделю. Архивные данные за месяц целиком и за предыдущие месяцы, начиная с января 2011 года, Вы можете получить, выбрав интересующий диапазон дат из раскрывающегося списка и нажав кнопку "Ввод!".


*Определитесь, кто Вы:
робот инопланетянин человек

Внимание! Время в таблицах - всемирное. Для получения местного времени необходимо прибавить поправку, которая равна 12 ч.

Смотрите также архив погоды в соседних городах и на ближайших метеорологических станциях:

Погода на Айон Острове (Чукотка, Россия) (72 км)
Погода в Певеке (Чукотка, Россия) (145 км)
Погода в Билибино (Чукотка, Россия) (161 км)
Погода в Бухте Амбарчик (Чукотка, Россия) (164 км)
Погода на 21 км (Чукотка, Россия) (169 км)
Погода в Чауне (Чукотка, Россия) (180 км)
Погода в Валькаркае (Чукотка, Россия) (181 км)
Погода в Островном (Чукотка, Россия) (181 км)
Погода в Черском (Якутия, Россия) (223 км)
Погода в Анюйске (Чукотка, Россия) (237 км)

Пояснения к столбцам:

Ветер - указаны скорость ветра в м/с - средняя за 10 мин, порывы в срок и между сроками (в фигурных скобках) и направление, откуда дует ветер: С - северный, СВ - северо-восточный, В - восточный, ЮВ - юго-восточный, Ю - южный, ЮЗ - юго-западный, З - западный, СЗ - северо-западный.
Видимость - горизонтальная дальность видимости в метрах или километрах. При видимости от 1 до 10 км при отсутствии осадков обычно наблюдается дымка, при ухудшении видимости до 1 км и менее - туман. В сухую погоду видимость может ухудшаться дымом, пылью или мглою.
Явления - указаны атмосферные явления, наблюдавшиеся в срок или в последний час перед сроком; фигурными скобками обозначены явления, наблюдавшиеся между сроками (за 1-3 часа до срока); квадратными скобками обозначены град или гололедные отложения с указанием их диаметра в мм.
Облачность - указаны через наклонную черту общая и нижняя облачность в баллах и высота нижней границы облаков в метрах; квадратными скобками обозначены формы облаков: Ci - перистые, Cs - перисто-слоистые, Cc - перисто-кучевые, Ac - высококучевые, As - высокослоистые, Sc - слоисто-кучевые, Ns - слоисто-дождевые, Cu - кучевые, Cb - кучево-дождевые. Подробнее классификацию облаков см. в Атласе облаков (PDF).
T - Температура воздуха - температура, измеренная на высоте 2 м над землей.
Td - Температура точки росы - температура, при понижении до которой содержащийся в воздухе водяной пар достигнет насыщения.
f - Относительная влажность воздуха - влажноcть воздуха, измеренная на высоте 2 м над землей.
Te - Эффективная температура - температура, которую ощущает одетый по сезону человек в тени. Характеристика душности погоды. При расчете учитывается влияние влажности воздуха и скорости ветра на теплоощущения человека.
Tes - Эффективная температура на солнце - температура, которую ощущает человек, с поправкой на солнечный нагрев. Характеристика знойности погоды. Зависит от высоты солнца над горизонтом, облачности и скорости ветра. Ночью, в пасмурную погоду, а также при ветре 12 м/с и более поправка равна нулю.
P - Атмосферное давление - приведенное к уровню моря атмосферное давление.
Po - Атмосферное давление - измеренное на уровне метеостанции атмосферное давление.
Tmin - Минимальная температура - минимум температуры воздуха на высоте 2 м над землей.
Tmax - Максимальная температура - максимум температуры воздуха на высоте 2 м над землей.
R - Количество осадков - Количество выпавших осадков за период времени, мм. При наведении курсора мыши на число - период времени, за который выпало указанное количество осадков.
R24 - Количество осадков - Количество выпавших осадков за 24 часа, мм.
S - Снежный покров - Высота снежного покрова, см. При наведении курсора мыши на число - состояние снежного покрова и степень покрытия местности в баллах.